Location: Concepci�n
(32.5333°N, 117.1167°W)
Time: 20:07:26
(UTC+00:00)

Cosmos 1892 Rocket - Pass Details

Date: 08 May 2021
Orbit: 607 x 632 km, 82.5° (Epoch: 18 June)

Event Time Altitude Azimuth Distance (km) Brightness Sun altitude
Exits shadow 12:25:04 - 204° (SSW) 2,834 6.5 -6.6°
Reaches altitude 10° 12:27:20 10° 212° (SSW) 1,963 5.6 -6.2°
Maximum altitude 12:31:20 37° 280° (W) 961 4.2 -5.4°
Drops below altitude 10° 12:35:22 10° 348° (NNW) 1,964 6.3 -4.7°
Sets 12:37:44 0° 357° (N) 2,870 7.3 -4.2°
